This demonstration page uses our WeatherBlox Daily Observations layout. Learn more.

Left ArrowRight Arrow

Hourly Observations for July 24, 2016

Temp ( °F °C ) Dew Point ( °F °C ) Humidity (%) Winds ( mph kmh ) Pressure ( in mb ) Visibility ( mi km ) Precip ( " mm )
12:51 am 00:51 Clear 87 30.6 51 10.6 29 29 N 10 17 29.70 1006 10 16 0.00 0.00
1:51 am 01:51 Clear 85 29.4 49 9.4 29 29 NE 7 11 29.71 1006 10 16 0.00 0.00
2:51 am 02:51 Clear 80 26.7 54 12.2 41 41 S 3 6 29.72 1007 10 16 0.00 0.00
3:51 am 03:51 Clear 77 25 54 12.2 45 45 NE 6 9 29.74 1007 10 16 0.00 0.00
4:51 am 04:51 Clear 78 25.6 54 12.2 43 43 SE 7 11 29.76 1008 10 16 0.00 0.00
5:51 am 05:51 Sunny 78 25.6 55 12.8 45 45 NNE 8 13 29.78 1009 10 16 0.00 0.00
6:51 am 06:51 Sunny 86 30 56 13.3 36 36 NW 13 20 29.80 1009 10 16 0.00 0.00
7:51 am 07:51 Sunny 89 31.7 57 13.9 34 34 NW 16 26 29.82 1010 10 16 0.00 0.00
8:51 am 08:51 Sunny 91 32.8 56 13.3 31 31 WNW 21 33 29.82 1010 10 16 0.00 0.00
9:51 am 09:51 Sunny 93 33.9 56 13.3 29 29 WNW 24 39 29.82 1010 10 16 0.00 0.00
10:51 am 10:51 Sunny 95 35 56 13.3 27 27 WNW 23 37 29.81 1010 10 16 0.00 0.00
11:51 am 11:51 Sunny 97 36.1 55 12.8 24 24 W 22 35 29.78 1008 10 16 0.00 0.00
12:51 pm 12:51 Sunny 100 37.8 55 12.8 22 22 WNW 22 35 29.74 1007 10 16 0.00 0.00
1:51 pm 13:51 Sunny 101 38.3 55 12.8 22 22 NW 16 26 29.72 1006 10 16 0.00 0.00
2:51 pm 14:51 Sunny 102 38.9 56 13.3 22 22 WNW 22 35 29.70 1006 10 16 0.00 0.00
3:51 pm 15:51 Sunny 102 38.9 55 12.8 21 21 WNW 22 35 29.67 1005 10 16 0.00 0.00
4:51 pm 16:51 Sunny 103 39.4 55 12.8 20 20 WNW 18 30 29.67 1005 10 16 0.00 0.00
5:47 pm 17:47 Sunny with Nearby Thunderstorms 102 39 55 13 21 21 NW 16 26 29.56 1001 10 16 0.00 0.00
5:51 pm 17:51 Sunny with Nearby Thunderstorms 102 38.9 55 12.8 21 21 NW 13 20 29.68 1005 10 16 0.00 0.00
6:07 pm 18:07 Partly Cloudy with Nearby Thunderstorms 99 37 50 10 19 19 NNE 8 13 29.59 1002 10 16 0.00 0.00
6:34 pm 18:34 Partly Cloudy 98 36.7 50 10 20 20 ENE 12 19 29.59 1002 10 16 0.00 0.00
6:47 pm 18:47 Partly Cloudy with Nearby Thunderstorms 99 37 52 11 21 21 NNE 9 15 29.59 1002 10 16 0.00 0.00
6:51 pm 18:51 Partly Cloudy with Nearby Thunderstorms 98 36.7 51 10.6 20 20 N 9 15 29.69 1006 10 16 0.00 0.00
7:08 pm 19:08 Mostly Sunny 96 35.6 49 9.4 20 20 NNW 12 19 29.59 1002 10 16 0.00 0.00
7:51 pm 19:51 Clear 96 35.6 48 8.9 19 19 N 12 19 29.70 1006 10 16 0.00 0.00
8:51 pm 20:51 Clear 93 33.9 46 7.8 20 20 W 8 13 29.73 1007 10 16 0.00 0.00
9:51 pm 21:51 Clear 90 32.2 48 8.9 24 24 W 6 9 29.77 1008 10 16 0.00 0.00
10:51 pm 22:51 Mostly Clear 86 30 54 12.2 33 33 SE 22 35 29.83 1010 7 11 0.00 0.00
11:51 pm 23:51 Clear 81 27.2 57 13.9 44 44 SSE 21 33 29.85 1011 10 16 0.00 0.00

Powered by AerisWeather